www.pogodaiklimat.ru

Погода и климат >> Архив погоды >> Иран >> Семнан


ПОГОДА в Семнане

  • Прогноз погоды в Семнане
  • Монитор погоды в Семнане

АРХИВ ПОГОДЫ в Семнане

Время (UTC), дата Ветер
(напр.,м/с)
 
Видим.   Явления Облачность Т
(С)
Тd
(С)
f
(%)
Тe
(С)
Тes
(С)
Комфортность P
(гПа)
Po
(гПа)
Тmin
(С)
Tmax
(С)
R
(мм)
R24
(мм)
S
(см)
12 14.03 В 3 15 км 6/1 1050 м
[Sc Ci sp]
+21.0 -7.2 14 +21 +24 комфорт 1011.3 886.6
15 14.03 В 1 15 км 9/4 1050 м
[Sc Ac As]
+18.8 -5.9 18 +20 +20 1011.1 886.2 +21.8
18 14.03 штиль 0 12 км 8/3 1050 м
[Sc Cs]
+16.4 -6.9 20 +16 +16 1010.1 886.3
21 14.03 штиль 0 12 км 6/3 1050 м
[Sc Ac und]
+14.4 -5.0 26 +14 +14 1010.1 886.4
00 15.03 штиль 0 12 км 9/3 1200 м
[Sc Ac As]
+13.5 -5.6 26 +14 +14 1009.3 885.7
03 15.03 штиль 0 12 км 9/3 1050 м
[Sc Ac As]
+11.6 -3.9 34 +12 +12 1008.8 884.5 +11.2
06 15.03 Ю 2 12 км 10/4 1050 м
[Sc Ac As]
+14.0 -2.6 32 +14 +15 1009.7 885.3
09 15.03 ЮЗ 3 12 км 10/6 900 м
[Cb calv Ac As]
+14.8 +1.4 40 +14 +16 1009.4 884.9
12 15.03 штиль 0 12 км {ливн. осадки} 6/3 1050 м
[Sc Ac und Ci sp]
+16.6 +1.3 36 +17 +20 1007.1 883.1 1
15 15.03 ЮЗ 6 8000 м слаб. ливневой дождь 10/6 900 м
[Cb calv Ac As]
+10.6 +6.6 76 +7 +7 1009.6 883.8 +17.2
18 15.03 штиль 0 12 км {ливн. осадки, дождь} 5/5 900 м
[Cb calv]
+8.4 +3.6 72 +8 +8 1010.6 884.6 3
21 15.03 штиль 0 12 км 4/4 1200 м
[Sc]
+6.0 +2.8 80 +5 +5 1011.4 885.0
00 16.03 штиль 0 12 км 3/3 1200 м
[Sc]
+5.6 +2.4 80 +5 +5 1011.0 885.0
03 16.03 штиль 0 10 км ясно +4.6 +2.3 85 +4 +4 1013.0 885.3 +3.8
06 16.03 Ю 1 5000 м мгла ясно +9.2 +5.0 75 +9 +20 опасность
простуды
1013.5 886.2
09 16.03 штиль 0 8000 м мгла ясно +13.6 +5.6 58 +13 +32 опасность
простуды
1012.3 885.6
12 16.03 штиль 0 15 км ясно +17.8 +3.2 38 +18 +25 1011.1 885.3
15 16.03 Ю 3 12 км ясно +14.8 +1.4 40 +14 +14 1011.7 884.9 +18.0
18 16.03 штиль 0 12 км ясно +11.8 +1.1 48 +12 +12 1011.4 885.0
21 16.03 В 1 12 км ясно +10.0 +3.6 64 +10 +10 1010.5 884.8
00 17.03 штиль 0 12 км ясно +9.0 +1.0 57 +9 +9 1009.6 884.6
03 17.03 штиль 0 12 км ясно +8.4 +0.5 58 +8 +8 1010.8 884.9 +6.2
06 17.03 ЮВ 2 10 км 5/1 1050 м
[Sc diur, vesp Ci fib]
+16.0 +1.5 37 +16 +24 1009.0 884.3
09 17.03 З 4 10 км 10/3 1050 м
[Sc diur, vesp As trans]
+15.6 -1.8 30 +15 +18 1005.4 880.6
12 17.03 Ю 3 8000 м слаб. дождь 10/6 1050 м
[Cb calv As op]
+14.0 -0.4 37 +13 +14 1002.8 877.8 0.0
15 17.03 С 3 5000 м в посл. час ливневой дождь 10/6 900 м
[Cb calv As op]
+8.5 +5.8 83 +6 +6 1002.3 876.3 +16.0
18 17.03 З 7 10 км {ливн. осадки, дождь} 9/5 900 м
[Cb calv Ac As]
+9.2 +4.1 70 +5 +5 999.5 875.5 5
21 17.03 ЮВ 2 12 км 6/4 1200 м
[Sc Ac As]
+7.2 +1.7 68 +5 +5 999.1 874.7
00 18.03 штиль 0 12 км 4/4 1200 м
[Sc]
+5.6 +3.4 86 +5 +5 999.1 874.0
03 18.03 штиль 0 4000 м дымка 9/5 600 м
[Sc Ac As]
+5.2 +4.3 94 +4 +4 1002.2 875.5 +4.8
06 18.03 С 10 10 км 10/4 1050 м
[Sc As trans]
+9.5 -1.3 47 +5 +5 1003.8 877.8
09 18.03 З 4 12 км 9/3 1200 м
[Sc As trans]
+10.6 -1.6 43 +9 +12 1006.4 879.9
12 18.03 СВ 5 10 км 9/4 1050 м
[Cb calv Ac As]
+11.4 -1.3 41 +9 +10 1008.0 881.1
15 18.03 С 4 10 км 8/4 1050 м
[Cb calv Ac As]
+10.4 -2.3 41 +8 +8 1009.8 882.4 +11.8
18 18.03 С 6 10 км 9/5 1050 м
[Cb calv As trans]
+8.5 -2.9 45 +5 +5 1011.7 884.6
21 18.03 С 2 10 км 9/4 1050 м
[Sc As op]
+8.2 -3.7 43 +7 +7 1012.6 885.5
00 19.03 штиль 0 12 км 5/3 1050 м
[Sc Ac und]
+6.0 -3.5 51 +6 +6 1013.7 886.2
03 19.03 СЗ 1 12 км ясно +2.5 -1.4 75 +1 +2 1015.9 887.1 +2.5
06 19.03 ЮВ 2 15 км 1/1 900 м
[Cu hum]
+10.2 -0.6 47 +9 +18 1015.7 888.2
09 19.03 ЮВ 3 18 км 4/1 900 м
[Cu hum Ac trans Ci fib]
+13.6 -2.6 32 +13 +22 1014.4 887.7
12 19.03 ЮЗ 3 15 км 4/1 1200 м
[Sc diur, vesp Ci fib]
+14.2 -3.0 30 +14 +17 1013.5 886.6
15 19.03 ЮВ 4 15 км 1/1 1200 м
[Sc diur, vesp]
+13.0 -3.7 31 +12 +12 1015.8 887.6 +15.2
18 19.03 ЮЗ 2 15 км 1/1 1200 м
[Sc]
+10.6 -4.2 35 +10 +10 1015.0 888.0
21 19.03 штиль 0 15 км 4/4 1200 м
[Sc]
+8.0 -1.3 52 +8 +8 1015.5 888.6
00 20.03 штиль 0 15 км 4/4 1200 м
[Sc]
+6.2 -1.9 56 +6 +6 1015.1 888.0
03 20.03 ЮВ 2 15 км 5/4 1200 м
[Sc Ci fib]
+5.2 -0.8 65 +3 +3 1016.1 888.5 +4.4
06 20.03 Ю 2 15 км 3/1 900 м
[Sc diur, vesp Ac und]
+12.2 -0.2 42 +12 +19 1014.9 888.4
09 20.03 Ю 3 15 км 4/4 900 м
[Cu Sc]
+13.6 +1.4 43 +13 +20 1014.8 888.1
12 20.03 Ю 5 15 км 5/5 900 м
[Cu Sc]
+14.6 -0.8 35 +13 +15 1013.7 886.9
15 20.03 ЮЗ 2 15 км 4/1 900 м
[Sc Ac und]
+13.0 -2.2 35 +13 +13 1014.0 886.6 +15.2
18 20.03 С 1 15 км 5/1 1050 м
[Sc Ac und]
+9.8 -0.6 48 +10 +10 1014.0 887.4
21 20.03 СЗ 5 15 км 6/1 1050 м
[Sc Ac und]
+8.8 -2.1 46 +6 +6 1014.3 887.7
00 21.03 ЮЗ 2 12 км в посл. час дождь 9/3 1050 м
[Sc Ac As]
+7.8 +0.2 59 +6 +6 1014.9 888.3 0.2
03 21.03 З 2 12 км {дождь} 9/3 1050 м
[Sc Ac As]
+6.2 +2.6 78 +4 +4 1016.2 888.9 +5.2
06 21.03 штиль 0 15 км {дождь} 1/1 750 м
[Cu hum]
+9.8 +1.7 57 +9 +21 опасность
простуды
1016.3 889.0 0.1
09 21.03 С 4 15 км 6/6 900 м
[Cb calv]
+12.0 -0.5 42 +10 +14 1015.8 888.7

 

Местоположение метеостанции Семнан (Иран): широта 35.55 долгота 53.38 высота над уровнем моря 1131 м.

В архиве по умолчанию представлена погода в Семнане за последнюю неделю. Архивные данные за месяц целиком и за предыдущие месяцы, начиная с января 2011 года, Вы можете получить, выбрав интересующий диапазон дат из раскрывающегося списка и нажав кнопку "Ввод!".


*Определитесь, кто Вы:
робот инопланетянин человек

Внимание! Время в таблицах - всемирное. Для получения местного времени необходимо прибавить поправку, которая равна 3.5 ч.

Смотрите также архив погоды в соседних городах и на ближайших метеорологических станциях:

Погода в Эскандар Кола (Иран) (112 км)
Погода в Бабольсере (Иран) (146 км)
Погода в Горгане (Иран) (165 км)
Погода в Шахруде (Иран) (171 км)
Погода в Тегеране (Иран) (187 км)
Погода в Ноушехре (Иран) (209 км)
Погода в Эсенгулы (Балканский велаят, Туркменистан) (220 км)
Погода в Кашане (Иран) (248 км)
Погода в Хоре (Иран) (251 км)
Погода в Гызылетреке (Балканский велаят, Туркменистан) (262 км)

Пояснения к столбцам:

Ветер - указаны скорость ветра в м/с - средняя за 10 мин, порывы в срок и между сроками (в фигурных скобках) и направление, откуда дует ветер: С - северный, СВ - северо-восточный, В - восточный, ЮВ - юго-восточный, Ю - южный, ЮЗ - юго-западный, З - западный, СЗ - северо-западный.
Видимость - горизонтальная дальность видимости в метрах или километрах. При видимости от 1 до 10 км при отсутствии осадков обычно наблюдается дымка, при ухудшении видимости до 1 км и менее - туман. В сухую погоду видимость может ухудшаться дымом, пылью или мглою.
Явления - указаны атмосферные явления, наблюдавшиеся в срок или в последний час перед сроком; фигурными скобками обозначены явления, наблюдавшиеся между сроками (за 1-3 часа до срока); квадратными скобками обозначены град или гололедные отложения с указанием их диаметра в мм.
Облачность - указаны через наклонную черту общая и нижняя облачность в баллах и высота нижней границы облаков в метрах; квадратными скобками обозначены формы облаков: Ci - перистые, Cs - перисто-слоистые, Cc - перисто-кучевые, Ac - высококучевые, As - высокослоистые, Sc - слоисто-кучевые, Ns - слоисто-дождевые, Cu - кучевые, Cb - кучево-дождевые. Подробнее классификацию облаков см. в Атласе облаков (PDF).
T - Температура воздуха - температура, измеренная на высоте 2 м над землей.
Td - Температура точки росы - температура, при понижении до которой содержащийся в воздухе водяной пар достигнет насыщения.
f - Относительная влажность воздуха - влажноcть воздуха, измеренная на высоте 2 м над землей.
Te - Эффективная температура - температура, которую ощущает одетый по сезону человек в тени. Характеристика душности погоды. При расчете учитывается влияние влажности воздуха и скорости ветра на теплоощущения человека.
Tes - Эффективная температура на солнце - температура, которую ощущает человек, с поправкой на солнечный нагрев. Характеристика знойности погоды. Зависит от высоты солнца над горизонтом, облачности и скорости ветра. Ночью, в пасмурную погоду, а также при ветре 12 м/с и более поправка равна нулю.
P - Атмосферное давление - приведенное к уровню моря атмосферное давление.
Po - Атмосферное давление - измеренное на уровне метеостанции атмосферное давление.
Tmin - Минимальная температура - минимум температуры воздуха на высоте 2 м над землей.
Tmax - Максимальная температура - максимум температуры воздуха на высоте 2 м над землей.
R - Количество осадков - Количество выпавших осадков за период времени, мм. При наведении курсора мыши на число - период времени, за который выпало указанное количество осадков.
R24 - Количество осадков - Количество выпавших осадков за 24 часа, мм.
S - Снежный покров - Высота снежного покрова, см. При наведении курсора мыши на число - состояние снежного покрова и степень покрытия местности в баллах.